St. Cloud, MN

3:23 PM CDT on June 23, 2018 (GMT -0500)
Saint Cloud Regional

Weather History for KSTC - October, 2017

Change the Weather History Date:

Thursday, October 19, 2017

  Actual Average Record
Temperature  
Mean Temperature 53 °F 45 °F  
Max Temperature 71 °F 55 °F 85 °F (2000)
Min Temperature 34 °F 34 °F 9 °F (1972)
Degree Days  
Heating Degree Days 12 20  
Month to date heating degree days 275 321  
Since 1 July heating degree days 454 607  
Cooling Degree Days 0 0  
Month to date cooling degree days 0 0  
Year to date cooling degree days 361 463  
Growing Degree Days 2 (Base 50)    
Moisture  
Dew Point 36 °F    
Average Humidity 61    
Maximum Humidity 96    
Minimum Humidity 26    
Precipitation  
Precipitation 0.00 in 0.08 in 1.65 in (1934)
Month to date precipitation 4.27 1.72  
Year to date precipitation 28.13 24.76  
Snow  
Snow 0.00 in 0.00 in 3.50 in (1916)
Month to date snowfall 0.0 0.2  
Since 1 July snowfall 0.0 0.2  
Since 1 September snowfall 0.0 0.2  
Snow Depth 0.00 in    
Sea Level Pressure  
Sea Level Pressure 30.00 in    
Wind  
Wind Speed 9 mph (South)    
Max Wind Speed 25 mph    
Max Gust Speed 32 mph    
Visibility 10 miles    
Events      
T = Trace of Precipitation, MM = Missing Value Source: NWS Daily Summary

Daily Weather History Graph

Daily Weather History Graph

Search for Another Location

Airport or City:

Astronomy

Oct. 19, 2017 Rise Set
Actual Time 7:38 AM CDT 6:23 PM CDT
Civil Twilight 7:08 AM CDT 6:53 PM CDT
Nautical Twilight 6:33 AM CDT 7:27 PM CDT
Astronomical Twilight 5:59 AM CDT 8:01 PM CDT
Moon 7:15 AM CDT (10/19) 6:48 PM CDT (10/19)
Length of Visible Light 11h 45m
Length of Day
10h 44m
Waning Crescent, 0% of the Moon is Illuminated
Oct 19
Waning Crescent
Oct 19
New
Oct 27
First Quarter
Nov 4
Full
Nov 10
Last Quarter

Hourly Weather History & Observations

Time (CDT) Temp. Windchill Dew Point Humidity Pressure Visibility Wind Dir Wind Speed Gust Speed Precip Events Conditions
12:53 AM 44.1 °F 39.5 °F 32.0 °F 63% 30.03 in 10.0 mi SW 8.1 mph - N/A   Clear
1:53 AM 43.0 °F 38.8 °F 32.0 °F 65% 30.04 in 10.0 mi WSW 6.9 mph - N/A   Clear
2:53 AM 41.0 °F 38.0 °F 32.0 °F 70% 30.05 in 10.0 mi SW 4.6 mph - N/A   Clear
3:53 AM 39.0 °F - 32.0 °F 76% 30.04 in 10.0 mi Calm Calm - N/A   Clear
4:53 AM 36.0 °F 32.1 °F 33.1 °F 89% 30.05 in 10.0 mi South 4.6 mph - N/A   Clear
5:53 AM 37.9 °F 35.5 °F 33.1 °F 83% 30.06 in 10.0 mi SSE 3.5 mph - N/A   Clear
6:53 AM 35.1 °F - 32.0 °F 89% 30.06 in 10.0 mi Calm Calm - N/A   Clear
7:53 AM 34.0 °F - 32.0 °F 92% 30.07 in 10.0 mi Calm Calm - N/A   Clear
8:53 AM 39.9 °F 36.7 °F 36.0 °F 86% 30.08 in 10.0 mi SSE 4.6 mph - N/A   Clear
9:53 AM 48.0 °F - 37.9 °F 68% 30.08 in 10.0 mi South 8.1 mph - N/A   Clear
10:53 AM 55.0 °F - 34.0 °F 45% 30.07 in 10.0 mi SSE 9.2 mph - N/A   Clear
11:53 AM 62.1 °F - 32.0 °F 32% 30.06 in 10.0 mi South 11.5 mph - N/A   Clear
12:53 PM 66.0 °F - 33.1 °F 29% 30.03 in 10.0 mi South 16.1 mph - N/A   Clear
1:53 PM 69.1 °F - 34.0 °F 27% 30.00 in 10.0 mi South 19.6 mph 25.3 mph N/A   Clear
2:53 PM 70.0 °F - 33.1 °F 26% 29.97 in 10.0 mi South 23.0 mph 28.8 mph N/A   Clear
3:53 PM 71.1 °F - 35.1 °F 27% 29.95 in 10.0 mi South 16.1 mph 28.8 mph N/A   Clear
4:53 PM 70.0 °F - 36.0 °F 29% 29.94 in 10.0 mi South 18.4 mph - N/A   Clear
5:53 PM 66.9 °F - 37.9 °F 34% 29.94 in 10.0 mi South 13.8 mph - N/A   Clear
6:53 PM 62.1 °F - 39.0 °F 43% 29.94 in 10.0 mi SSE 9.2 mph - N/A   Clear
7:53 PM 57.0 °F - 39.9 °F 53% 29.94 in 10.0 mi SSE 9.2 mph - N/A   Clear
8:53 PM 55.0 °F - 41.0 °F 59% 29.93 in 10.0 mi SSE 8.1 mph - N/A   Clear
9:53 PM 54.0 °F - 41.0 °F 62% 29.92 in 10.0 mi SSE 6.9 mph - N/A   Clear
10:53 PM 57.0 °F - 43.0 °F 59% 29.92 in 10.0 mi South 8.1 mph - N/A   Clear
11:53 PM 54.0 °F - 44.1 °F 69% 29.91 in 10.0 mi SSE 8.1 mph - N/A   Clear